Time,TemperatureF,DewpointF,PressureIn,WindDirection,WindDirectionDegrees,WindSpeedMPH,WindSpeedGustMPH,Humidity,HourlyPrecipIn,Conditions,Clouds,dailyrainin,SoftwareType,DateUTC
2013-02-01 00:00:00,33.0,26.3,30.20,East,90,0.0,0.0,76,0.00,,,0.00,Weather View 32 v70,2013-02-01 05:00:00,
2013-02-01 00:05:00,33.0,26.3,30.20,East,90,0.0,0.0,76,0.00,,,0.00,Weather View 32 v70,2013-02-01 05:05:00,
2013-02-01 00:10:00,33.0,26.3,30.20,East,90,0.0,0.0,76,0.00,,,0.00,Weather View 32 v70,2013-02-01 05:10:00,
2013-02-01 00:15:00,33.0,26.3,30.20,East,90,0.0,0.0,76,0.00,,,0.00,Weather View 32 v70,2013-02-01 05:15:00,
2013-02-01 00:20:00,33.0,26.3,30.19,East,90,0.0,0.0,76,0.00,,,0.00,Weather View 32 v70,2013-02-01 05:20:00,
2013-02-01 00:25:00,33.0,26.3,30.19,East,90,0.0,0.0,76,0.00,,,0.00,Weather View 32 v70,2013-02-01 05:25:00,
2013-02-01 00:35:00,33.0,26.3,30.20,NNE,22,0.0,0.0,76,0.00,,,0.00,Weather View 32 v70,2013-02-01 05:35:00,
2013-02-01 00:40:00,33.0,26.3,30.20,NNE,22,0.0,0.0,76,0.00,,,0.00,Weather View 32 v70,2013-02-01 05:40:00,
2013-02-01 00:45:00,33.0,26.3,30.20,NNE,22,0.0,0.0,76,0.00,,,0.00,Weather View 32 v70,2013-02-01 05:45:00,
2013-02-01 00:50:00,33.0,26.3,30.19,NNE,22,0.0,0.0,76,0.00,,,0.00,Weather View 32 v70,2013-02-01 05:50:00,
2013-02-01 00:55:00,33.0,26.3,30.19,NNE,22,0.0,0.0,76,0.00,,,0.00,Weather View 32 v70,2013-02-01 05:55:00,
2013-02-01 01:00:00,33.0,26.3,30.19,NNE,22,0.0,0.0,76,0.00,,,0.00,Weather View 32 v70,2013-02-01 06:00:00,
2013-02-01 01:05:00,33.0,26.3,30.19,NNE,22,0.0,0.0,76,0.00,,,0.00,Weather View 32 v70,2013-02-01 06:05:00,
2013-02-01 01:10:00,33.0,26.3,30.18,NNE,22,0.0,0.0,76,0.00,,,0.00,Weather View 32 v70,2013-02-01 06:10:00,
2013-02-01 01:15:00,32.0,25.6,30.18,NNE,22,0.0,0.0,77,0.00,,,0.00,Weather View 32 v70,2013-02-01 06:15:00,
2013-02-01 01:20:00,32.0,25.6,30.18,NNE,22,0.0,0.0,77,0.00,,,0.00,Weather View 32 v70,2013-02-01 06:20:00,
2013-02-01 01:25:00,32.0,25.6,30.18,NNE,22,0.0,0.0,77,0.00,,,0.00,Weather View 32 v70,2013-02-01 06:25:00,
2013-02-01 01:30:00,32.0,25.6,30.17,NNE,22,0.0,0.0,77,0.00,,,0.00,Weather View 32 v70,2013-02-01 06:30:00,
2013-02-01 01:35:00,32.0,25.6,30.17,NNE,22,0.0,0.0,77,0.00,,,0.00,Weather View 32 v70,2013-02-01 06:35:00,
2013-02-01 01:45:00,32.0,25.6,30.18,NNW,337,0.0,0.0,77,0.00,,,0.00,Weather View 32 v70,2013-02-01 06:45:00,
2013-02-01 01:50:00,32.0,25.6,30.18,NNW,337,0.0,0.0,77,0.00,,,0.00,Weather View 32 v70,2013-02-01 06:50:00,
2013-02-01 01:55:00,32.0,25.6,30.18,NE,45,0.0,0.0,77,0.00,,,0.00,Weather View 32 v70,2013-02-01 06:55:00,
2013-02-01 02:00:00,32.0,25.6,30.18,NE,45,0.0,0.0,77,0.00,,,0.00,Weather View 32 v70,2013-02-01 07:00:00,
2013-02-01 02:05:00,32.0,25.6,30.18,NE,45,0.0,0.0,77,0.00,,,0.00,Weather View 32 v70,2013-02-01 07:05:00,
2013-02-01 02:15:00,33.0,26.3,30.16,North,360,0.0,0.0,76,0.00,,,0.00,Weather View 32 v70,2013-02-01 07:15:00,
2013-02-01 02:20:00,33.0,26.3,30.16,North,360,0.0,0.0,76,0.00,,,0.00,Weather View 32 v70,2013-02-01 07:20:00,
2013-02-01 02:25:00,33.0,26.3,30.16,North,360,0.0,0.0,76,0.00,,,0.00,Weather View 32 v70,2013-02-01 07:25:00,
2013-02-01 02:30:00,33.0,26.3,30.15,West,270,0.0,0.0,76,0.00,,,0.00,Weather View 32 v70,2013-02-01 07:30:00,
2013-02-01 02:35:00,34.0,27.2,30.15,NE,45,0.0,0.0,76,0.00,,,0.00,Weather View 32 v70,2013-02-01 07:35:00,
2013-02-01 02:40:00,35.0,28.2,30.14,East,90,0.0,0.0,76,0.00,,,0.00,Weather View 32 v70,2013-02-01 07:40:00,
2013-02-01 02:45:00,35.0,28.2,30.14,West,270,0.0,1.0,76,0.00,,,0.00,Weather View 32 v70,2013-02-01 07:45:00,
2013-02-01 02:50:00,36.0,29.2,30.13,SW,225,0.0,1.0,76,0.00,,,0.00,Weather View 32 v70,2013-02-01 07:50:00,
2013-02-01 02:55:00,36.0,29.2,30.13,ENE,67,0.0,4.0,76,0.00,,,0.00,Weather View 32 v70,2013-02-01 07:55:00,
2013-02-01 03:00:00,37.0,30.1,30.12,West,270,0.0,5.0,76,0.00,,,0.00,Weather View 32 v70,2013-02-01 08:00:00,
2013-02-01 03:10:00,38.0,30.8,30.11,NE,45,0.0,10.0,75,0.00,,,0.00,Weather View 32 v70,2013-02-01 08:10:00,
2013-02-01 03:15:00,38.0,30.8,30.11,East,90,0.0,10.0,75,0.00,,,0.00,Weather View 32 v70,2013-02-01 08:15:00,
2013-02-01 03:20:00,38.0,30.8,30.11,NW,315,0.0,10.0,75,0.00,,,0.00,Weather View 32 v70,2013-02-01 08:20:00,
2013-02-01 03:25:00,38.0,30.8,30.11,North,360,0.0,10.0,75,0.00,,,0.00,Weather View 32 v70,2013-02-01 08:25:00,
2013-02-01 03:30:00,38.0,30.8,30.10,SW,225,0.0,10.0,75,0.00,,,0.00,Weather View 32 v70,2013-02-01 08:30:00,
2013-02-01 03:35:00,39.0,31.7,30.10,WSW,247,0.0,10.0,75,0.00,,,0.00,Weather View 32 v70,2013-02-01 08:35:00,
2013-02-01 03:40:00,39.0,31.7,30.10,South,180,0.0,10.0,75,0.00,,,0.00,Weather View 32 v70,2013-02-01 08:40:00,
2013-02-01 03:45:00,39.0,31.7,30.10,West,270,0.0,10.0,75,0.00,,,0.00,Weather View 32 v70,2013-02-01 08:45:00,
2013-02-01 03:50:00,39.0,31.7,30.10,NW,315,0.0,10.0,75,0.00,,,0.00,Weather View 32 v70,2013-02-01 08:50:00,
2013-02-01 03:55:00,39.0,31.7,30.10,NW,315,0.0,10.0,75,0.00,,,0.00,Weather View 32 v70,2013-02-01 08:55:00,
2013-02-01 04:00:00,39.0,31.7,30.09,WSW,247,0.0,10.0,75,0.00,,,0.00,Weather View 32 v70,2013-02-01 09:00:00,
2013-02-01 04:05:00,39.0,31.7,30.09,SW,225,1.0,10.0,75,0.00,,,0.00,Weather View 32 v70,2013-02-01 09:05:00,
2013-02-01 04:15:00,40.0,32.7,30.08,West,270,0.0,7.0,75,0.00,,,0.00,Weather View 32 v70,2013-02-01 09:15:00,
2013-02-01 04:20:00,40.0,32.7,30.07,SW,225,0.0,7.0,75,0.00,,,0.00,Weather View 32 v70,2013-02-01 09:20:00,
2013-02-01 04:25:00,40.0,32.7,30.07,West,270,0.0,7.0,75,0.00,,,0.00,Weather View 32 v70,2013-02-01 09:25:00,
2013-02-01 04:30:00,40.0,32.7,30.06,West,270,0.0,7.0,75,0.00,,,0.00,Weather View 32 v70,2013-02-01 09:30:00,
2013-02-01 04:35:00,40.0,32.7,30.06,West,270,0.0,7.0,75,0.00,,,0.00,Weather View 32 v70,2013-02-01 09:35:00,
2013-02-01 04:40:00,40.0,32.7,30.06,WSW,247,0.0,7.0,75,0.00,,,0.00,Weather View 32 v70,2013-02-01 09:40:00,
2013-02-01 04:45:00,40.0,32.7,30.06,West,270,0.0,7.0,75,0.00,,,0.00,Weather View 32 v70,2013-02-01 09:45:00,
2013-02-01 04:50:00,40.0,32.7,30.06,NNE,22,0.0,9.0,75,0.00,,,0.00,Weather View 32 v70,2013-02-01 09:50:00,
2013-02-01 04:55:00,40.0,32.7,30.06,SW,225,0.0,9.0,75,0.00,,,0.00,Weather View 32 v70,2013-02-01 09:55:00,
2013-02-01 05:00:00,40.0,32.7,30.05,North,360,0.0,9.0,75,0.00,,,0.00,Weather View 32 v70,2013-02-01 10:00:00,
2013-02-01 05:05:00,40.0,32.7,30.05,West,270,0.0,9.0,75,0.00,,,0.00,Weather View 32 v70,2013-02-01 10:05:00,
2013-02-01 05:10:00,40.0,32.7,30.04,North,360,0.0,9.0,75,0.00,,,0.00,Weather View 32 v70,2013-02-01 10:10:00,
2013-02-01 05:15:00,40.0,32.7,30.04,SW,225,0.0,9.0,75,0.00,,,0.00,Weather View 32 v70,2013-02-01 10:15:00,
2013-02-01 05:20:00,40.0,32.7,30.04,West,270,0.0,9.0,75,0.00,,,0.00,Weather View 32 v70,2013-02-01 10:20:00,
2013-02-01 05:30:00,41.0,33.7,30.04,West,270,0.0,9.0,75,0.00,,,0.00,Weather View 32 v70,2013-02-01 10:30:00,
2013-02-01 05:35:00,41.0,33.7,30.04,West,270,0.0,9.0,75,0.00,,,0.00,Weather View 32 v70,2013-02-01 10:35:00,
2013-02-01 05:40:00,41.0,33.7,30.04,NW,315,0.0,9.0,75,0.00,,,0.00,Weather View 32 v70,2013-02-01 10:40:00,
2013-02-01 05:45:00,41.0,33.7,30.04,West,270,1.0,9.0,75,0.00,,,0.00,Weather View 32 v70,2013-02-01 10:45:00,
2013-02-01 05:50:00,41.0,33.7,30.05,North,360,0.0,8.0,75,0.00,,,0.00,Weather View 32 v70,2013-02-01 10:50:00,
2013-02-01 05:55:00,41.0,33.7,30.05,West,270,0.0,8.0,75,0.00,,,0.00,Weather View 32 v70,2013-02-01 10:55:00,
2013-02-01 06:00:00,41.0,33.7,30.05,West,270,0.0,8.0,75,0.00,,,0.00,Weather View 32 v70,2013-02-01 11:00:00,
2013-02-01 06:10:00,42.0,34.6,30.06,West,270,5.0,10.0,75,0.00,,,0.00,Weather View 32 v70,2013-02-01 11:10:00,
2013-02-01 06:15:00,42.0,34.6,30.06,WNW,292,0.0,10.0,75,0.00,,,0.00,Weather View 32 v70,2013-02-01 11:15:00,
2013-02-01 06:20:00,42.0,34.6,30.06,WNW,292,0.0,10.0,75,0.00,,,0.00,Weather View 32 v70,2013-02-01 11:20:00,
2013-02-01 06:25:00,42.0,34.6,30.06,West,270,0.0,10.0,75,0.00,,,0.00,Weather View 32 v70,2013-02-01 11:25:00,
2013-02-01 06:30:00,42.0,34.6,30.07,NW,315,0.0,10.0,75,0.00,,,0.00,Weather View 32 v70,2013-02-01 11:30:00,
2013-02-01 06:35:00,41.0,33.7,30.07,NW,315,0.0,10.0,75,0.00,,,0.00,Weather View 32 v70,2013-02-01 11:35:00,
2013-02-01 06:40:00,41.0,33.7,30.08,West,270,0.0,10.0,75,0.00,,,0.00,Weather View 32 v70,2013-02-01 11:40:00,
2013-02-01 06:45:00,41.0,33.7,30.08,West,270,0.0,10.0,75,0.00,,,0.00,Weather View 32 v70,2013-02-01 11:45:00,
2013-02-01 06:55:00,41.0,33.7,30.10,SW,225,0.0,10.0,75,0.00,,,0.00,Weather View 32 v70,2013-02-01 11:55:00,
2013-02-01 07:00:00,41.0,33.7,30.10,West,270,0.0,10.0,75,0.00,,,0.00,Weather View 32 v70,2013-02-01 12:00:00,
2013-02-01 07:05:00,41.0,33.7,30.10,West,270,0.0,10.0,75,0.00,,,0.00,Weather View 32 v70,2013-02-01 12:05:00,
2013-02-01 07:10:00,41.0,33.7,30.10,West,270,0.0,7.0,75,0.00,,,0.00,Weather View 32 v70,2013-02-01 12:10:00,
2013-02-01 07:15:00,41.0,33.7,30.10,SSE,157,0.0,5.0,75,0.00,,,0.00,Weather View 32 v70,2013-02-01 12:15:00,
2013-02-01 07:20:00,41.0,33.7,30.12,WSW,247,0.0,6.0,75,0.00,,,0.00,Weather View 32 v70,2013-02-01 12:20:00,
2013-02-01 07:25:00,41.0,33.7,30.12,West,270,0.0,6.0,75,0.00,,,0.00,Weather View 32 v70,2013-02-01 12:25:00,
2013-02-01 07:30:00,41.0,33.7,30.13,West,270,0.0,6.0,75,0.00,,,0.00,Weather View 32 v70,2013-02-01 12:30:00,
2013-02-01 07:35:00,41.0,33.7,30.13,South,180,1.0,6.0,75,0.00,,,0.00,Weather View 32 v70,2013-02-01 12:35:00,
2013-02-01 07:40:00,41.0,33.7,30.14,SE,135,0.0,6.0,75,0.00,,,0.00,Weather View 32 v70,2013-02-01 12:40:00,
2013-02-01 07:45:00,41.0,33.7,30.14,West,270,0.0,6.0,75,0.00,,,0.00,Weather View 32 v70,2013-02-01 12:45:00,
2013-02-01 07:50:00,41.0,33.7,30.16,West,270,0.0,6.0,75,0.00,,,0.00,Weather View 32 v70,2013-02-01 12:50:00,
2013-02-01 08:00:00,41.0,33.7,30.19,WNW,292,0.0,10.0,75,0.00,,,0.00,Weather View 32 v70,2013-02-01 13:00:00,
2013-02-01 08:05:00,41.0,33.7,30.19,WSW,247,0.0,10.0,75,0.00,,,0.00,Weather View 32 v70,2013-02-01 13:05:00,
2013-02-01 08:10:00,40.0,32.7,30.19,SSW,202,0.0,10.0,75,0.00,,,0.00,Weather View 32 v70,2013-02-01 13:10:00,
2013-02-01 08:15:00,40.0,32.7,30.19,NNW,337,0.0,10.0,75,0.00,,,0.00,Weather View 32 v70,2013-02-01 13:15:00,
2013-02-01 08:20:00,40.0,32.7,30.20,West,270,5.0,16.0,75,0.00,,,0.00,Weather View 32 v70,2013-02-01 13:20:00,
2013-02-01 08:30:00,39.0,31.7,30.22,South,180,0.0,16.0,75,0.00,,,0.00,Weather View 32 v70,2013-02-01 13:30:00,
2013-02-01 08:35:00,39.0,31.7,30.22,SSE,157,0.0,16.0,75,0.00,,,0.00,Weather View 32 v70,2013-02-01 13:35:00,
2013-02-01 08:40:00,39.0,31.7,30.23,SE,135,0.0,16.0,75,0.00,,,0.00,Weather View 32 v70,2013-02-01 13:40:00,
2013-02-01 08:45:00,39.0,31.7,30.23,West,270,0.0,16.0,75,0.00,,,0.00,Weather View 32 v70,2013-02-01 13:45:00,
2013-02-01 08:50:00,39.0,31.7,30.25,West,270,0.0,16.0,75,0.00,,,0.00,Weather View 32 v70,2013-02-01 13:50:00,
2013-02-01 08:55:00,38.0,30.8,30.25,SW,225,0.0,16.0,75,0.00,,,0.00,Weather View 32 v70,2013-02-01 13:55:00,
2013-02-01 09:05:00,38.0,30.8,30.26,West,270,0.0,16.0,75,0.00,,,0.00,Weather View 32 v70,2013-02-01 14:05:00,
2013-02-01 09:10:00,38.0,30.8,30.27,NW,315,2.0,16.0,75,0.00,,,0.00,Weather View 32 v70,2013-02-01 14:10:00,
2013-02-01 09:15:00,38.0,30.8,30.27,WNW,292,0.0,21.0,75,0.00,,,0.00,Weather View 32 v70,2013-02-01 14:15:00,
2013-02-01 09:21:00,38.0,30.8,30.28,NW,315,0.0,21.0,75,0.00,,,0.00,Weather View 32 v70,2013-02-01 14:21:00,
2013-02-01 09:30:00,38.0,30.8,30.28,NE,45,0.0,21.0,75,0.00,,,0.00,Weather View 32 v70,2013-02-01 14:30:00,
2013-02-01 09:35:00,38.0,30.8,30.28,North,360,0.0,21.0,75,0.00,,,0.00,Weather View 32 v70,2013-02-01 14:35:00,
2013-02-01 09:40:00,38.0,30.8,30.29,West,270,0.0,21.0,75,0.00,,,0.00,Weather View 32 v70,2013-02-01 14:40:00,
2013-02-01 09:45:00,37.0,30.1,30.29,West,270,0.0,21.0,76,0.00,,,0.00,Weather View 32 v70,2013-02-01 14:45:00,
2013-02-01 09:50:00,37.0,30.1,30.30,SW,225,0.0,21.0,76,0.00,,,0.00,Weather View 32 v70,2013-02-01 14:50:00,
2013-02-01 10:00:00,37.0,30.1,30.31,NW,315,4.0,21.0,76,0.00,,,0.00,Weather View 32 v70,2013-02-01 15:00:00,
2013-02-01 10:10:00,37.0,30.1,30.32,West,270,0.0,21.0,76,0.00,,,0.00,Weather View 32 v70,2013-02-01 15:10:00,
2013-02-01 10:15:00,37.0,30.1,30.32,West,270,4.0,19.0,76,0.00,,,0.00,Weather View 32 v70,2013-02-01 15:15:00,
2013-02-01 10:20:00,37.0,30.1,30.32,SW,225,0.0,19.0,76,0.00,,,0.00,Weather View 32 v70,2013-02-01 15:20:00,
2013-02-01 10:25:00,37.0,30.1,30.32,West,270,0.0,19.0,76,0.00,,,0.00,Weather View 32 v70,2013-02-01 15:25:00,
2013-02-01 10:30:00,37.0,30.1,30.33,NW,315,0.0,12.0,76,0.00,,,0.00,Weather View 32 v70,2013-02-01 15:30:00,
2013-02-01 10:35:00,38.0,30.8,30.33,West,270,0.0,12.0,75,0.00,,,0.00,Weather View 32 v70,2013-02-01 15:35:00,
2013-02-01 10:40:00,38.0,30.8,30.35,South,180,8.0,12.0,75,0.00,,,0.00,Weather View 32 v70,2013-02-01 15:40:00,
2013-02-01 10:45:00,38.0,30.8,30.35,West,270,0.0,12.0,75,0.00,,,0.00,Weather View 32 v70,2013-02-01 15:45:00,
2013-02-01 10:55:00,39.0,31.7,30.36,NW,315,4.0,12.0,75,0.00,,,0.00,Weather View 32 v70,2013-02-01 15:55:00,
2013-02-01 11:00:00,39.0,31.7,30.36,SE,135,0.0,12.0,75,0.00,,,0.00,Weather View 32 v70,2013-02-01 16:00:00,
2013-02-01 11:05:00,39.0,31.7,30.36,NW,315,0.0,12.0,75,0.00,,,0.00,Weather View 32 v70,2013-02-01 16:05:00,
2013-02-01 11:10:00,39.0,31.7,30.37,SE,135,0.0,12.0,75,0.00,,,0.00,Weather View 32 v70,2013-02-01 16:10:00,
2013-02-01 11:15:00,39.0,31.7,30.37,West,270,0.0,12.0,75,0.00,,,0.00,Weather View 32 v70,2013-02-01 16:15:00,
2013-02-01 11:20:00,39.0,31.7,30.37,West,270,0.0,12.0,75,0.00,,,0.00,Weather View 32 v70,2013-02-01 16:20:00,
2013-02-01 11:25:00,39.0,31.7,30.37,NW,315,0.0,12.0,75,0.00,,,0.00,Weather View 32 v70,2013-02-01 16:25:00,
2013-02-01 11:30:00,40.0,32.7,30.38,West,270,0.0,12.0,75,0.00,,,0.00,Weather View 32 v70,2013-02-01 16:30:00,
2013-02-01 11:35:00,40.0,32.7,30.38,East,90,0.0,12.0,75,0.00,,,0.00,Weather View 32 v70,2013-02-01 16:35:00,
2013-02-01 11:40:00,40.0,32.7,30.38,SW,225,0.0,12.0,75,0.00,,,0.00,Weather View 32 v70,2013-02-01 16:40:00,
2013-02-01 11:45:00,40.0,32.7,30.38,SW,225,0.0,11.0,75,0.00,,,0.00,Weather View 32 v70,2013-02-01 16:45:00,
2013-02-01 11:50:00,40.0,32.7,30.38,NW,315,0.0,11.0,75,0.00,,,0.00,Weather View 32 v70,2013-02-01 16:50:00,
2013-02-01 11:55:00,39.0,31.7,30.38,North,360,0.0,11.0,75,0.00,,,0.00,Weather View 32 v70,2013-02-01 16:55:00,
2013-02-01 12:00:00,39.0,31.7,30.38,East,90,0.0,11.0,75,0.00,,,0.00,Weather View 32 v70,2013-02-01 17:00:00,
2013-02-01 12:10:00,39.0,31.7,30.38,NW,315,0.0,11.0,75,0.00,,,0.00,Weather View 32 v70,2013-02-01 17:10:00,
2013-02-01 12:15:00,39.0,31.7,30.38,SW,225,0.0,11.0,75,0.00,,,0.00,Weather View 32 v70,2013-02-01 17:15:00,
2013-02-01 12:20:00,38.0,30.8,30.38,SW,225,0.0,13.0,75,0.00,,,0.00,Weather View 32 v70,2013-02-01 17:20:00,
2013-02-01 12:25:00,38.0,30.8,30.38,SSW,202,0.0,13.0,75,0.00,,,0.00,Weather View 32 v70,2013-02-01 17:25:00,
2013-02-01 12:30:00,38.0,30.8,30.38,North,360,0.0,13.0,75,0.00,,,0.00,Weather View 32 v70,2013-02-01 17:30:00,
2013-02-01 12:35:00,38.0,30.8,30.38,West,270,0.0,13.0,75,0.00,,,0.00,Weather View 32 v70,2013-02-01 17:35:00,
2013-02-01 12:45:00,39.0,31.7,30.38,SE,135,0.0,13.0,75,0.00,,,0.00,Weather View 32 v70,2013-02-01 17:45:00,
2013-02-01 12:50:00,40.0,32.7,30.38,NW,315,0.0,13.0,75,0.00,,,0.00,Weather View 32 v70,2013-02-01 17:50:00,
2013-02-01 12:55:00,40.0,32.7,30.38,West,270,0.0,13.0,75,0.00,,,0.00,Weather View 32 v70,2013-02-01 17:55:00,
2013-02-01 13:00:00,40.0,32.7,30.38,West,270,0.0,13.0,75,0.00,,,0.00,Weather View 32 v70,2013-02-01 18:00:00,
2013-02-01 13:05:00,41.0,33.7,30.38,West,270,0.0,13.0,75,0.00,,,0.00,Weather View 32 v70,2013-02-01 18:05:00,
2013-02-01 13:10:00,41.0,33.7,30.38,WNW,292,0.0,14.0,75,0.00,,,0.00,Weather View 32 v70,2013-02-01 18:10:00,
2013-02-01 13:15:00,41.0,33.7,30.38,NW,315,0.0,14.0,75,0.00,,,0.00,Weather View 32 v70,2013-02-01 18:15:00,
2013-02-01 13:20:00,41.0,33.7,30.37,East,90,0.0,14.0,75,0.00,,,0.00,Weather View 32 v70,2013-02-01 18:20:00,
2013-02-01 13:25:00,42.0,34.6,30.37,East,90,0.0,14.0,75,0.00,,,0.00,Weather View 32 v70,2013-02-01 18:25:00,
2013-02-01 13:30:00,42.0,34.6,30.36,West,270,0.0,14.0,75,0.00,,,0.00,Weather View 32 v70,2013-02-01 18:30:00,
2013-02-01 13:35:00,42.0,34.6,30.36,SE,135,0.0,14.0,75,0.00,,,0.00,Weather View 32 v70,2013-02-01 18:35:00,
2013-02-01 13:40:00,42.0,34.6,30.36,NW,315,0.0,14.0,75,0.00,,,0.00,Weather View 32 v70,2013-02-01 18:40:00,
2013-02-01 13:45:00,43.0,35.9,30.36,South,180,0.0,14.0,76,0.00,,,0.00,Weather View 32 v70,2013-02-01 18:45:00,
2013-02-01 13:50:00,43.0,35.9,30.36,WSW,247,0.0,14.0,76,0.00,,,0.00,Weather View 32 v70,2013-02-01 18:50:00,
2013-02-01 14:00:00,43.0,35.9,30.36,NW,315,0.0,14.0,76,0.00,,,0.00,Weather View 32 v70,2013-02-01 19:00:00,
2013-02-01 14:05:00,43.0,35.9,30.36,NW,315,0.0,14.0,76,0.00,,,0.00,Weather View 32 v70,2013-02-01 19:05:00,
2013-02-01 14:10:00,43.0,35.9,30.37,WNW,292,0.0,11.0,76,0.00,,,0.00,Weather View 32 v70,2013-02-01 19:10:00,
2013-02-01 14:15:00,42.0,34.6,30.37,NE,45,0.0,11.0,75,0.00,,,0.00,Weather View 32 v70,2013-02-01 19:15:00,
2013-02-01 14:20:00,42.0,34.6,30.37,West,270,0.0,11.0,75,0.00,,,0.00,Weather View 32 v70,2013-02-01 19:20:00,
2013-02-01 14:25:00,43.0,35.9,30.37,West,270,0.0,11.0,76,0.00,,,0.00,Weather View 32 v70,2013-02-01 19:25:00,
2013-02-01 14:30:00,43.0,35.9,30.37,West,270,0.0,11.0,76,0.00,,,0.00,Weather View 32 v70,2013-02-01 19:30:00,
2013-02-01 14:35:00,43.0,35.9,30.37,West,270,0.0,11.0,76,0.00,,,0.00,Weather View 32 v70,2013-02-01 19:35:00,
2013-02-01 14:40:00,43.0,35.9,30.37,South,180,5.0,11.0,76,0.00,,,0.00,Weather View 32 v70,2013-02-01 19:40:00,
2013-02-01 14:45:00,43.0,35.9,30.37,SE,135,0.0,11.0,76,0.00,,,0.00,Weather View 32 v70,2013-02-01 19:45:00,
2013-02-01 14:50:00,43.0,35.9,30.37,NE,45,0.0,11.0,76,0.00,,,0.00,Weather View 32 v70,2013-02-01 19:50:00,
2013-02-01 14:55:00,43.0,35.9,30.37,West,270,0.0,11.0,76,0.00,,,0.00,Weather View 32 v70,2013-02-01 19:55:00,
2013-02-01 15:00:00,43.0,35.9,30.37,NW,315,0.0,11.0,76,0.00,,,0.00,Weather View 32 v70,2013-02-01 20:00:00,
2013-02-01 15:05:00,43.0,35.9,30.37,North,360,0.0,11.0,76,0.00,,,0.00,Weather View 32 v70,2013-02-01 20:05:00,
2013-02-01 15:10:00,43.0,35.9,30.37,West,270,0.0,11.0,76,0.00,,,0.00,Weather View 32 v70,2013-02-01 20:10:00,
2013-02-01 15:15:00,43.0,35.9,30.37,West,270,0.0,7.0,76,0.00,,,0.00,Weather View 32 v70,2013-02-01 20:15:00,
2013-02-01 15:24:00,43.0,35.9,30.38,West,270,0.0,7.0,76,0.00,,,0.00,Weather View 32 v70,2013-02-01 20:24:00,
2013-02-01 15:30:00,44.0,36.9,30.38,NW,315,0.0,5.0,76,0.00,,,0.00,Weather View 32 v70,2013-02-01 20:30:00,
2013-02-01 15:35:00,44.0,36.9,30.38,NNW,337,0.0,5.0,76,0.00,,,0.00,Weather View 32 v70,2013-02-01 20:35:00,
2013-02-01 15:40:00,44.0,36.9,30.38,NW,315,3.0,5.0,76,0.00,,,0.00,Weather View 32 v70,2013-02-01 20:40:00,
2013-02-01 15:45:00,44.0,36.9,30.38,West,270,0.0,5.0,76,0.00,,,0.00,Weather View 32 v70,2013-02-01 20:45:00,
2013-02-01 15:50:00,44.0,36.9,30.38,NW,315,0.0,5.0,76,0.00,,,0.00,Weather View 32 v70,2013-02-01 20:50:00,
2013-02-01 15:55:00,43.0,35.9,30.38,SW,225,0.0,5.0,76,0.00,,,0.00,Weather View 32 v70,2013-02-01 20:55:00,
2013-02-01 16:00:00,43.0,35.9,30.39,West,270,0.0,5.0,76,0.00,,,0.00,Weather View 32 v70,2013-02-01 21:00:00,
2013-02-01 16:05:00,42.0,34.6,30.39,West,270,0.0,5.0,75,0.00,,,0.00,Weather View 32 v70,2013-02-01 21:05:00,
2013-02-01 16:10:00,42.0,34.6,30.40,WSW,247,0.0,5.0,75,0.00,,,0.00,Weather View 32 v70,2013-02-01 21:10:00,
2013-02-01 16:15:00,42.0,34.6,30.40,West,270,0.0,5.0,75,0.00,,,0.00,Weather View 32 v70,2013-02-01 21:15:00,
2013-02-01 16:20:00,41.0,33.7,30.40,NW,315,0.0,5.0,75,0.00,,,0.00,Weather View 32 v70,2013-02-01 21:20:00,
2013-02-01 16:30:00,41.0,33.7,30.41,NW,315,0.0,5.0,75,0.00,,,0.00,Weather View 32 v70,2013-02-01 21:30:00,
2013-02-01 16:35:00,40.0,32.7,30.41,West,270,0.0,5.0,75,0.00,,,0.00,Weather View 32 v70,2013-02-01 21:35:00,
2013-02-01 16:40:00,40.0,32.7,30.42,ENE,67,0.0,5.0,75,0.00,,,0.00,Weather View 32 v70,2013-02-01 21:40:00,
2013-02-01 16:45:00,40.0,32.7,30.42,North,360,0.0,3.0,75,0.00,,,0.00,Weather View 32 v70,2013-02-01 21:45:00,
2013-02-01 16:55:00,39.0,31.7,30.42,West,270,0.0,10.0,75,0.00,,,0.00,Weather View 32 v70,2013-02-01 21:55:00,
2013-02-01 17:00:00,39.0,31.7,30.43,West,270,0.0,10.0,75,0.00,,,0.00,Weather View 32 v70,2013-02-01 22:00:00,
2013-02-01 17:05:00,39.0,31.7,30.43,WNW,292,0.0,10.0,75,0.00,,,0.00,Weather View 32 v70,2013-02-01 22:05:00,
2013-02-01 17:10:00,38.0,30.8,30.44,WSW,247,0.0,10.0,75,0.00,,,0.00,Weather View 32 v70,2013-02-01 22:10:00,
2013-02-01 17:15:00,38.0,30.8,30.44,WSW,247,0.0,10.0,75,0.00,,,0.00,Weather View 32 v70,2013-02-01 22:15:00,
2013-02-01 17:20:00,38.0,30.8,30.43,West,270,0.0,10.0,75,0.00,,,0.00,Weather View 32 v70,2013-02-01 22:20:00,
2013-02-01 17:25:00,37.0,30.1,30.43,East,90,0.0,10.0,76,0.00,,,0.00,Weather View 32 v70,2013-02-01 22:25:00,
2013-02-01 17:35:00,37.0,30.1,30.44,SW,225,0.0,10.0,76,0.00,,,0.00,Weather View 32 v70,2013-02-01 22:35:00,
2013-02-01 17:40:00,36.0,29.2,30.45,West,270,0.0,10.0,76,0.00,,,0.00,Weather View 32 v70,2013-02-01 22:40:00,
2013-02-01 17:50:00,36.0,29.2,30.45,West,270,0.0,0.0,76,0.00,,,0.00,Weather View 32 v70,2013-02-01 22:50:00,
2013-02-01 17:55:00,35.0,28.2,30.45,West,270,0.0,0.0,76,0.00,,,0.00,Weather View 32 v70,2013-02-01 22:55:00,
2013-02-01 18:00:00,35.0,28.2,30.46,West,270,0.0,0.0,76,0.00,,,0.00,Weather View 32 v70,2013-02-01 23:00:00,
2013-02-01 18:05:00,35.0,28.2,30.46,SE,135,0.0,0.0,76,0.00,,,0.00,Weather View 32 v70,2013-02-01 23:05:00,
2013-02-01 18:10:00,35.0,28.2,30.47,SE,135,0.0,0.0,76,0.00,,,0.00,Weather View 32 v70,2013-02-01 23:10:00,
2013-02-01 18:15:00,34.0,27.2,30.47,SE,135,0.0,0.0,76,0.00,,,0.00,Weather View 32 v70,2013-02-01 23:15:00,
2013-02-01 18:20:00,34.0,27.2,30.47,SE,135,0.0,0.0,76,0.00,,,0.00,Weather View 32 v70,2013-02-01 23:20:00,
2013-02-01 18:25:00,34.0,27.2,30.47,SE,135,0.0,0.0,76,0.00,,,0.00,Weather View 32 v70,2013-02-01 23:25:00,
2013-02-01 18:30:00,33.0,26.3,30.49,SE,135,0.0,0.0,76,0.00,,,0.00,Weather View 32 v70,2013-02-01 23:30:00,
2013-02-01 18:35:00,33.0,26.3,30.49,SE,135,0.0,0.0,76,0.00,,,0.00,Weather View 32 v70,2013-02-01 23:35:00,
2013-02-01 18:40:00,33.0,26.3,30.49,SE,135,0.0,0.0,76,0.00,,,0.00,Weather View 32 v70,2013-02-01 23:40:00,
2013-02-01 18:50:00,32.0,25.6,30.50,SE,135,0.0,0.0,77,0.00,,,0.00,Weather View 32 v70,2013-02-01 23:50:00,
2013-02-01 18:55:00,32.0,25.6,30.50,SE,135,0.0,0.0,77,0.00,,,0.00,Weather View 32 v70,2013-02-01 23:55:00,
2013-02-01 19:00:00,32.0,25.6,30.50,SE,135,0.0,0.0,77,0.00,,,0.00,Weather View 32 v70,2013-02-02 00:00:00,
2013-02-01 19:05:00,32.0,25.6,30.50,SE,135,0.0,0.0,77,0.00,,,0.00,Weather View 32 v70,2013-02-02 00:05:00,
2013-02-01 19:10:00,31.0,24.6,30.51,SE,135,0.0,0.0,77,0.00,,,0.00,Weather View 32 v70,2013-02-02 00:10:00,
2013-02-01 19:15:00,31.0,24.6,30.51,SE,135,0.0,0.0,77,0.00,,,0.00,Weather View 32 v70,2013-02-02 00:15:00,
2013-02-01 19:20:00,31.0,24.6,30.51,SE,135,0.0,0.0,77,0.00,,,0.00,Weather View 32 v70,2013-02-02 00:20:00,
2013-02-01 19:25:00,31.0,24.6,30.51,SE,135,0.0,0.0,77,0.00,,,0.00,Weather View 32 v70,2013-02-02 00:25:00,
2013-02-01 19:30:00,30.0,23.7,30.51,SE,135,0.0,0.0,77,0.00,,,0.00,Weather View 32 v70,2013-02-02 00:30:00,
2013-02-01 19:35:00,30.0,23.7,30.51,SE,135,0.0,0.0,77,0.00,,,0.00,Weather View 32 v70,2013-02-02 00:35:00,
2013-02-01 19:40:00,30.0,23.7,30.51,SE,135,0.0,0.0,77,0.00,,,0.00,Weather View 32 v70,2013-02-02 00:40:00,
2013-02-01 19:45:00,30.0,23.7,30.51,SE,135,0.0,0.0,77,0.00,,,0.00,Weather View 32 v70,2013-02-02 00:45:00,
2013-02-01 19:50:00,29.0,22.7,30.53,SE,135,0.0,0.0,77,0.00,,,0.00,Weather View 32 v70,2013-02-02 00:50:00,
2013-02-01 19:55:00,29.0,22.7,30.53,SE,135,0.0,0.0,77,0.00,,,0.00,Weather View 32 v70,2013-02-02 00:55:00,
2013-02-01 20:00:00,29.0,22.7,30.53,SE,135,0.0,0.0,77,0.00,,,0.00,Weather View 32 v70,2013-02-02 01:00:00,
2013-02-01 20:10:00,29.0,22.7,30.54,SE,135,0.0,0.0,77,0.00,,,0.00,Weather View 32 v70,2013-02-02 01:10:00,
2013-02-01 20:15:00,28.0,21.7,30.54,SE,135,0.0,0.0,77,0.00,,,0.00,Weather View 32 v70,2013-02-02 01:15:00,
2013-02-01 20:20:00,28.0,21.7,30.54,SE,135,0.0,0.0,77,0.00,,,0.00,Weather View 32 v70,2013-02-02 01:20:00,
2013-02-01 20:25:00,28.0,21.7,30.54,SE,135,0.0,0.0,77,0.00,,,0.00,Weather View 32 v70,2013-02-02 01:25:00,
2013-02-01 20:30:00,28.0,21.7,30.55,SE,135,0.0,0.0,77,0.00,,,0.00,Weather View 32 v70,2013-02-02 01:30:00,
2013-02-01 20:35:00,28.0,21.7,30.55,SE,135,0.0,0.0,77,0.00,,,0.00,Weather View 32 v70,2013-02-02 01:35:00,
2013-02-01 20:40:00,28.0,21.7,30.55,SE,135,0.0,0.0,77,0.00,,,0.00,Weather View 32 v70,2013-02-02 01:40:00,
2013-02-01 20:45:00,28.0,21.7,30.55,SE,135,0.0,0.0,77,0.00,,,0.00,Weather View 32 v70,2013-02-02 01:45:00,
2013-02-01 20:50:00,27.0,20.8,30.55,SE,135,0.0,0.0,77,0.00,,,0.00,Weather View 32 v70,2013-02-02 01:50:00,
2013-02-01 20:55:00,27.0,20.8,30.55,SE,135,0.0,0.0,77,0.00,,,0.00,Weather View 32 v70,2013-02-02 01:55:00,
2013-02-01 21:00:00,27.0,20.8,30.56,SE,135,0.0,0.0,77,0.00,,,0.00,Weather View 32 v70,2013-02-02 02:00:00,
2013-02-01 21:10:00,27.0,20.8,30.56,SE,135,0.0,0.0,77,0.00,,,0.00,Weather View 32 v70,2013-02-02 02:10:00,
2013-02-01 21:15:00,27.0,20.8,30.56,SE,135,0.0,0.0,77,0.00,,,0.00,Weather View 32 v70,2013-02-02 02:15:00,
2013-02-01 21:20:00,27.0,20.8,30.57,SE,135,0.0,0.0,77,0.00,,,0.00,Weather View 32 v70,2013-02-02 02:20:00,
2013-02-01 21:25:00,27.0,20.8,30.57,SE,135,0.0,0.0,77,0.00,,,0.00,Weather View 32 v70,2013-02-02 02:25:00,
2013-02-01 21:30:00,27.0,20.8,30.57,SE,135,0.0,0.0,77,0.00,,,0.00,Weather View 32 v70,2013-02-02 02:30:00,
2013-02-01 21:35:00,27.0,20.8,30.57,SE,135,0.0,0.0,77,0.00,,,0.00,Weather View 32 v70,2013-02-02 02:35:00,
2013-02-01 21:40:00,27.0,20.8,30.58,SE,135,0.0,0.0,77,0.00,,,0.00,Weather View 32 v70,2013-02-02 02:40:00,
2013-02-01 21:50:00,26.0,20.1,30.58,SE,135,0.0,0.0,78,0.00,,,0.00,Weather View 32 v70,2013-02-02 02:50:00,
2013-02-01 21:55:00,26.0,20.1,30.58,SE,135,0.0,0.0,78,0.00,,,0.00,Weather View 32 v70,2013-02-02 02:55:00,
2013-02-01 22:00:00,26.0,20.1,30.58,SE,135,0.0,0.0,78,0.00,,,0.00,Weather View 32 v70,2013-02-02 03:00:00,
2013-02-01 22:05:00,26.0,20.1,30.58,SE,135,0.0,0.0,78,0.00,,,0.00,Weather View 32 v70,2013-02-02 03:05:00,
2013-02-01 22:10:00,26.0,20.1,30.58,SE,135,0.0,0.0,78,0.00,,,0.00,Weather View 32 v70,2013-02-02 03:10:00,
2013-02-01 22:15:00,26.0,20.1,30.58,SE,135,0.0,0.0,78,0.00,,,0.00,Weather View 32 v70,2013-02-02 03:15:00,
2013-02-01 22:20:00,26.0,20.1,30.58,SE,135,0.0,0.0,78,0.00,,,0.00,Weather View 32 v70,2013-02-02 03:20:00,
2013-02-01 22:25:00,26.0,20.1,30.58,SE,135,0.0,0.0,78,0.00,,,0.00,Weather View 32 v70,2013-02-02 03:25:00,
2013-02-01 22:30:00,26.0,20.1,30.59,SE,135,0.0,0.0,78,0.00,,,0.00,Weather View 32 v70,2013-02-02 03:30:00,
2013-02-01 22:35:00,26.0,20.1,30.59,SE,135,0.0,0.0,78,0.00,,,0.00,Weather View 32 v70,2013-02-02 03:35:00,
2013-02-01 22:40:00,26.0,20.1,30.58,SE,135,0.0,0.0,78,0.00,,,0.00,Weather View 32 v70,2013-02-02 03:40:00,
2013-02-01 22:45:00,26.0,20.1,30.58,SE,135,0.0,0.0,78,0.00,,,0.00,Weather View 32 v70,2013-02-02 03:45:00,
2013-02-01 22:50:00,26.0,20.1,30.59,SE,135,0.0,0.0,78,0.00,,,0.00,Weather View 32 v70,2013-02-02 03:50:00,
2013-02-01 22:55:00,26.0,20.1,30.59,SE,135,0.0,0.0,78,0.00,,,0.00,Weather View 32 v70,2013-02-02 03:55:00,
2013-02-01 23:00:00,25.0,19.1,30.60,SE,135,0.0,0.0,78,0.00,,,0.00,Weather View 32 v70,2013-02-02 04:00:00,
2013-02-01 23:05:00,25.0,19.1,30.60,SE,135,0.0,0.0,78,0.00,,,0.00,Weather View 32 v70,2013-02-02 04:05:00,
2013-02-01 23:10:00,25.0,19.1,30.60,SE,135,0.0,0.0,78,0.00,,,0.00,Weather View 32 v70,2013-02-02 04:10:00,
2013-02-01 23:20:00,25.0,19.1,30.60,SE,135,0.0,0.0,78,0.00,,,0.00,Weather View 32 v70,2013-02-02 04:20:00,
2013-02-01 23:25:00,25.0,19.1,30.60,SE,135,0.0,0.0,78,0.00,,,0.00,Weather View 32 v70,2013-02-02 04:25:00,
2013-02-01 23:30:00,25.0,19.1,30.59,SE,135,0.0,0.0,78,0.00,,,0.00,Weather View 32 v70,2013-02-02 04:30:00,
2013-02-01 23:35:00,25.0,19.1,30.59,SE,135,0.0,0.0,78,0.00,,,0.00,Weather View 32 v70,2013-02-02 04:35:00,
2013-02-01 23:40:00,25.0,19.1,30.60,SE,135,0.0,0.0,78,0.00,,,0.00,Weather View 32 v70,2013-02-02 04:40:00,
2013-02-01 23:45:00,25.0,19.1,30.60,SE,135,0.0,0.0,78,0.00,,,0.00,Weather View 32 v70,2013-02-02 04:45:00,
2013-02-01 23:50:00,25.0,19.1,30.60,SE,135,0.0,0.0,78,0.00,,,0.00,Weather View 32 v70,2013-02-02 04:50:00,
2013-02-01 23:55:00,25.0,19.1,30.60,SE,135,0.0,0.0,78,0.00,,,0.00,Weather View 32 v70,2013-02-02 04:55:00,